{"data":{"norad_id":65368,"epoch":"2026-09-20T16:56:05.068608Z","epoch_age_seconds":99734,"freshness":"FRESH","line1":"1 65368U 25190T   26263.70561422  .00020915  00000+0  62829-3 0  9997","line2":"2 65368  53.1597 338.7596 0001149  71.2392 288.8735 15.34406666 59668","mean_motion":15.34406666,"eccentricity":0.0001149,"inclination_deg":53.1597,"raan_deg":338.7596,"arg_perigee_deg":71.2392,"mean_anomaly_deg":288.8735,"bstar":0.00062829,"rev_number":5966,"period_min":93.847350373802,"perigee_km":461.89741725492,"apogee_km":463.46943778916,"semimajor_km":6840.820427522,"source":"CELESTRAK","updated_at":"2026-09-21T09:00:35.578704Z"}}